TimeCST,TemperatureF,Dew PointF,Humidity,Sea Level PressureIn,VisibilityMPH,Wind Direction,Wind SpeedMPH,Gust SpeedMPH,PrecipitationIn,Events,Conditions,WindDirDegrees,DateUTC
12:12 AM,8.6,5.0,85,30.02,7.0,NNW,12.7,-,N/A,Snow,Light Snow,330,2012-12-23 06:12:00
12:33 AM,8.6,5.0,85,30.01,10.0,NNW,11.5,-,N/A,,Mostly Cloudy,330,2012-12-23 06:33:00
12:52 AM,6.8,5.0,92,30.01,10.0,NNW,15.0,-,N/A,,Scattered Clouds,330,2012-12-23 06:52:00
1:12 AM,6.8,3.2,85,30.01,10.0,NNW,13.8,-,N/A,,Clear,330,2012-12-23 07:12:00
1:33 AM,6.8,3.2,85,30.01,10.0,NNW,12.7,-,N/A,,Scattered Clouds,340,2012-12-23 07:33:00
1:52 AM,6.8,3.2,85,30.01,10.0,NNW,12.7,-,N/A,,Overcast,340,2012-12-23 07:52:00
2:12 AM,6.8,5.0,92,30.03,7.0,NNW,12.7,-,N/A,Snow,Light Snow,340,2012-12-23 08:12:00
2:33 AM,6.8,6.8,100,30.02,5.0,NNW,12.7,-,N/A,Snow,Light Snow,340,2012-12-23 08:33:00
2:52 AM,8.6,6.8,92,30.04,5.0,NNW,11.5,-,N/A,Snow,Light Snow,330,2012-12-23 08:52:00
3:12 AM,8.6,6.8,92,30.04,3.0,NNW,11.5,-,N/A,Snow,Light Snow,340,2012-12-23 09:12:00
3:52 AM,8.6,6.8,92,30.02,5.0,North,12.7,-,N/A,Snow,Light Snow,350,2012-12-23 09:52:00
4:12 AM,8.6,6.8,92,30.02,4.0,NNW,10.4,-,N/A,Snow,Light Snow,340,2012-12-23 10:12:00
4:32 AM,10.4,8.6,92,30.04,3.0,NNW,6.9,-,N/A,Snow,Light Snow,330,2012-12-23 10:32:00
4:52 AM,10.4,6.8,85,30.04,4.0,NNW,6.9,-,N/A,Snow,Light Snow,340,2012-12-23 10:52:00
5:13 AM,8.6,6.8,92,30.03,5.0,North,10.4,-,N/A,Snow,Light Snow,360,2012-12-23 11:13:00
5:32 AM,8.6,6.8,92,30.03,7.0,North,9.2,-,N/A,,Overcast,350,2012-12-23 11:32:00
5:52 AM,8.6,6.8,92,30.04,7.0,North,5.8,-,N/A,Snow,Light Snow,360,2012-12-23 11:52:00
6:13 AM,8.6,6.8,92,30.05,10.0,North,6.9,-,N/A,,Overcast,350,2012-12-23 12:13:00
6:32 AM,8.6,6.8,92,30.04,10.0,North,4.6,-,N/A,Snow,Light Snow,360,2012-12-23 12:32:00
6:52 AM,8.6,6.8,92,30.04,10.0,North,5.8,-,N/A,,Overcast,360,2012-12-23 12:52:00
7:13 AM,8.6,6.8,92,30.04,10.0,North,8.1,-,N/A,,Overcast,360,2012-12-23 13:13:00
7:52 AM,8.6,5.0,85,30.05,10.0,North,5.8,-,N/A,,Mostly Cloudy,360,2012-12-23 13:52:00
8:13 AM,6.8,5.0,92,30.05,10.0,North,4.6,-,N/A,,Scattered Clouds,10,2012-12-23 14:13:00
8:32 AM,6.8,5.0,92,30.05,10.0,North,5.8,-,N/A,,Scattered Clouds,360,2012-12-23 14:32:00
8:52 AM,8.6,6.8,92,30.05,10.0,North,6.9,-,N/A,,Clear,10,2012-12-23 14:52:00
9:13 AM,8.6,6.8,92,30.07,10.0,North,5.8,-,N/A,,Clear,360,2012-12-23 15:13:00
9:32 AM,8.6,6.8,92,30.05,10.0,NNE,6.9,-,N/A,,Clear,20,2012-12-23 15:32:00
9:52 AM,8.6,6.8,92,30.05,10.0,NNE,4.6,-,N/A,,Clear,20,2012-12-23 15:52:00
10:13 AM,10.4,8.6,92,30.05,10.0,NNE,4.6,-,N/A,,Scattered Clouds,30,2012-12-23 16:13:00
10:52 AM,10.4,8.6,92,30.04,7.0,NNE,8.1,-,N/A,Snow,Light Snow,30,2012-12-23 16:52:00
11:13 AM,10.4,8.6,92,30.03,7.0,NE,5.8,-,N/A,,Overcast,50,2012-12-23 17:13:00
11:32 AM,10.4,8.6,92,30.02,10.0,NE,8.1,-,N/A,Snow,Light Snow,50,2012-12-23 17:32:00
11:52 AM,12.2,10.4,92,30.01,10.0,NE,8.1,-,N/A,Snow,Light Snow,50,2012-12-23 17:52:00
12:13 PM,12.2,8.6,85,30.02,10.0,NE,3.5,-,N/A,,Mostly Cloudy,40,2012-12-23 18:13:00
12:33 PM,12.2,8.6,85,30.02,7.0,Calm,Calm,-,N/A,Snow,Light Snow,0,2012-12-23 18:33:00
12:52 PM,14.0,8.6,79,30.01,7.0,NNE,3.5,-,N/A,Snow,Light Snow,30,2012-12-23 18:52:00
1:13 PM,14.0,10.4,86,30.01,10.0,NNE,3.5,-,N/A,Snow,Light Snow,20,2012-12-23 19:13:00
1:52 PM,14.0,10.4,86,30.00,10.0,Calm,Calm,-,N/A,,Scattered Clouds,0,2012-12-23 19:52:00
2:13 PM,14.0,10.4,86,30.00,10.0,Calm,Calm,-,N/A,,Scattered Clouds,0,2012-12-23 20:13:00
2:33 PM,14.0,10.4,86,30.00,10.0,Calm,Calm,-,N/A,,Clear,0,2012-12-23 20:33:00
2:52 PM,14.0,10.4,86,30.00,10.0,Calm,Calm,-,N/A,,Clear,0,2012-12-23 20:52:00
3:13 PM,14.0,10.4,86,30.00,10.0,Calm,Calm,-,N/A,,Clear,0,2012-12-23 21:13:00
3:33 PM,14.0,10.4,86,30.01,10.0,Calm,Calm,-,N/A,,Clear,0,2012-12-23 21:33:00
3:52 PM,14.0,10.4,86,30.02,10.0,Calm,Calm,-,N/A,,Clear,0,2012-12-23 21:52:00
4:13 PM,14.0,10.4,86,30.01,10.0,Calm,Calm,-,N/A,,Clear,0,2012-12-23 22:13:00
4:52 PM,14.0,10.4,86,30.01,10.0,North,5.8,-,N/A,,Clear,10,2012-12-23 22:52:00
5:13 PM,12.2,10.4,92,30.00,10.0,North,6.9,-,N/A,,Clear,10,2012-12-23 23:13:00
5:33 PM,12.2,10.4,92,30.02,10.0,NNW,8.1,-,N/A,,Clear,340,2012-12-23 23:33:00
5:52 PM,12.2,8.6,85,30.02,10.0,North,6.9,-,N/A,,Clear,10,2012-12-23 23:52:00
6:13 PM,12.2,8.6,85,30.01,10.0,North,5.8,-,N/A,,Clear,10,2012-12-24 00:13:00
6:33 PM,12.2,8.6,85,30.02,10.0,North,5.8,-,N/A,,Clear,350,2012-12-24 00:33:00
6:52 PM,10.4,8.6,92,29.99,10.0,NE,3.5,-,N/A,,Clear,50,2012-12-24 00:52:00
7:13 PM,10.4,8.6,92,29.97,10.0,ENE,5.8,-,N/A,,Clear,60,2012-12-24 01:13:00
7:33 PM,10.4,8.6,92,29.96,10.0,ENE,5.8,-,N/A,,Clear,70,2012-12-24 01:33:00
7:52 PM,10.4,8.6,92,29.97,10.0,Calm,Calm,-,N/A,,Clear,0,2012-12-24 01:52:00
8:13 PM,10.4,8.6,92,29.97,10.0,Calm,Calm,-,N/A,,Clear,0,2012-12-24 02:13:00
8:33 PM,10.4,6.8,85,29.96,10.0,Calm,Calm,-,N/A,,Clear,0,2012-12-24 02:33:00
8:52 PM,8.6,6.8,92,29.97,10.0,Calm,Calm,-,N/A,,Clear,0,2012-12-24 02:52:00
9:13 PM,6.8,3.2,85,29.97,10.0,Calm,Calm,-,N/A,,Clear,0,2012-12-24 03:13:00
9:32 PM,5.0,3.2,92,29.97,10.0,Calm,Calm,-,N/A,,Clear,0,2012-12-24 03:32:00
9:52 PM,6.8,3.2,85,29.99,10.0,West,4.6,-,N/A,,Clear,280,2012-12-24 03:52:00
10:13 PM,6.8,3.2,85,29.98,10.0,Calm,Calm,-,N/A,,Clear,0,2012-12-24 04:13:00
10:32 PM,6.8,3.2,85,29.97,10.0,Calm,Calm,-,N/A,,Clear,0,2012-12-24 04:32:00
10:52 PM,8.6,6.8,92,29.98,10.0,Calm,Calm,-,N/A,,Clear,0,2012-12-24 04:52:00
11:13 PM,8.6,6.8,92,29.98,10.0,Calm,Calm,-,N/A,,Clear,0,2012-12-24 05:13:00
11:32 PM,8.6,5.0,85,29.98,10.0,Calm,Calm,-,N/A,Snow,Light Snow,0,2012-12-24 05:32:00
11:53 PM,8.6,6.8,92,29.97,10.0,Calm,Calm,-,N/A,Snow,Light Snow,0,2012-12-24 05:53:00